Location: St Paul
(44.9440°N, 93.0930°W)
Time: 15:55:23
(UTC-06:00)

Amateur Radio Satellites - All Passes

Search period start: 22 January 2018 15:25
Search period end: 23 January 2018 15:25
Location: St Paul, 44.9440°N, 93.0930°W

Satellite Date Start Highest point End Downlink Frequencies (MHz)
Time Altitude Azimuth
BEESAT 3 22 Jan 15:55:39 15:56:15 10° 30° (NNE) 15:56:51 437.485
UKube-1 22 Jan 15:56:06 15:59:05 19° 297° (WNW) 16:02:03 .
XW-2F 22 Jan 16:06:35 16:07:06 10° 61° (ENE) 16:07:37 145.980 - 146.000
DOVE 4 22 Jan 16:07:34 16:11:49 85° 77° (ENE) 16:15:59 437.250
AO-7 22 Jan 16:11:52 16:18:43 28° 266° (W) 16:25:39 .
NO-84 22 Jan 16:13:39 16:16:25 28° 135° (SE) 16:19:02 435.350 FM
HO-68 22 Jan 16:15:50 16:20:13 18° 50° (NE) 16:24:36 435.675
XW-2D 22 Jan 16:16:07 16:18:19 15° 64° (ENE) 16:20:31 145.860 - 145.880
ITUPSAT 1 22 Jan 16:20:49 16:25:36 62° 288° (WNW) 16:30:20 437.325
XW-2B 22 Jan 16:32:57 16:35:52 21° 67° (ENE) 16:38:48 145.730 - 145.750
MOZHAYETS 4 22 Jan 16:34:40 16:38:27 25° 295° (WNW) 16:42:12
M-CUBED/EXP-1 PRIME 22 Jan 16:36:56 16:40:49 33° 257° (WSW) 16:44:29 437.505
CUBESAT XI-V 22 Jan 16:42:02 16:46:39 73° 286° (WNW) 16:51:12 437.345
PCSat 22 Jan 16:46:05 16:49:50 18° 37° (NE) 16:53:35 145.827
CUTE 1.7 + AOD 2 22 Jan 16:46:15 16:47:11 11° 59° (ENE) 16:48:06 437.475
BEESAT 2 22 Jan 16:48:06 16:48:50 10° 30° (NNE) 16:49:34 435.950
ITAMSAT 1 22 Jan 16:53:40 16:55:23 12° 273° (W) 16:57:08 435.822/435.867
CUTE-I 22 Jan 16:56:54 17:01:50 41° 67° (ENE) 17:06:47 437.470
BEESAT 22 Jan 16:59:45 17:03:47 27° 295° (WNW) 17:07:48 436.000
XW-2C 22 Jan 17:02:31 17:06:12 46° 73° (ENE) 17:09:53 145.795 - 145.815
LilacSat-2 22 Jan 17:02:44 17:06:28 51° 73° (ENE) 17:10:14 437.200
CUBEBUG 2 22 Jan 17:16:20 17:18:59 16° 61° (ENE) 17:21:41 437.445
RS-15 22 Jan 17:22:23 17:34:03 73° 241° (WSW) 17:45:06 29.354- 29.394
BEESAT 3 22 Jan 17:30:49 17:34:41 53° 51° (NE) 17:38:28 437.485
KAITUO 1B 22 Jan 17:31:39 17:35:25 73° 74° (ENE) 17:39:10 145.475/437.950
XW-2F 22 Jan 17:36:48 17:40:37 74° 259° (W) 17:44:26 145.980 - 146.000
NUDT-PHONESAT 22 Jan 17:39:00 17:42:44 84° 76° (ENE) 17:46:29 437.300
AAUSAT CUBESAT 2 22 Jan 17:41:22 17:41:51 10° 60° (ENE) 17:42:20 437.432
AO-85 22 Jan 17:43:29 17:44:40 11° 25° (NNE) 17:45:53 145.980
XW-2D 22 Jan 17:48:24 17:52:06 47° 261° (W) 17:55:48 145.860 - 145.880
KKS-1 22 Jan 17:48:48 17:53:17 83° 104° (ESE) 17:57:45 437.445
NO-84 22 Jan 17:50:45 17:53:31 32° 331° (NNW) 17:56:11 435.350 FM
STARS 22 Jan 17:59:12 18:03:26 42° 99° (E) 18:07:37 437.465
HO-68 22 Jan 17:59:41 18:06:49 76° 70° (ENE) 18:13:59 435.675
SEEDS 22 Jan 18:02:00 18:05:52 37° 70° (ENE) 18:09:46 437.485
XW-2B 22 Jan 18:06:28 18:09:52 30° 264° (W) 18:13:17 145.730 - 145.750
Oscar 11 22 Jan 18:15:36 18:16:17 10° 59° (ENE) 18:16:58 .
CUTE 1.7 + AOD 2 22 Jan 18:18:03 18:22:19 88° 260° (W) 18:26:36 437.475
BEESAT 2 22 Jan 18:23:33 18:27:30 51° 51° (NE) 18:31:22 435.950
PCSat 22 Jan 18:28:37 18:34:05 83° 58° (ENE) 18:39:31 145.827
CUTE-I 22 Jan 18:37:25 18:41:59 29° 265° (W) 18:46:33 437.470
XW-2C 22 Jan 18:38:32 18:40:37 14° 269° (W) 18:42:40 145.795 - 145.815
LilacSat-2 22 Jan 18:39:12 18:41:02 13° 270° (W) 18:42:52 437.200
STRAND 1 22 Jan 18:49:42 18:53:44 23° 93° (E) 18:57:45 437.568
CUBEBUG 2 22 Jan 18:50:40 18:55:03 63° 260° (W) 18:59:36 437.445
UWE-3 22 Jan 18:51:38 18:56:05 77° 74° (ENE) 19:00:41 435.000/436.395/437.385
XW-2A 22 Jan 19:01:50 19:05:12 58° 74° (ENE) 19:08:35 145.665 - 145.685
BEESAT 3 22 Jan 19:09:25 19:11:46 16° 249° (WSW) 19:14:06 437.485
ZACube-1 22 Jan 19:10:45 19:15:10 65° 74° (ENE) 19:19:42 437.345
AAUSAT CUBESAT 2 22 Jan 19:12:30 19:16:38 86° 257° (WSW) 19:20:47 437.432
AO-73 22 Jan 19:16:13 19:20:39 65° 73° (ENE) 19:25:11 145.935
AO-85 22 Jan 19:21:50 19:26:24 38° 47° (NE) 19:31:13 145.980
KKS-1 22 Jan 19:27:23 19:29:11 12° 301° (WNW) 19:31:00 437.445
NO-84 22 Jan 19:30:03 19:31:22 12° 352° (N) 19:32:39 435.350 FM
DELFI C3 22 Jan 19:32:58 19:34:12 11° 61° (ENE) 19:35:27 145.870
nSIGHT-1 22 Jan 19:33:46 19:36:25 25° 138° (SE) 19:39:05 .
STARS 22 Jan 19:36:09 19:39:29 21° 296° (WNW) 19:42:49 437.465
RS-15 22 Jan 19:37:28 19:44:08 18° 264° (W) 19:50:41 29.354- 29.394
SEEDS 22 Jan 19:38:29 19:41:40 21° 267° (W) 19:44:51 437.485
Oscar 11 22 Jan 19:47:20 19:51:41 86° 76° (ENE) 19:56:04 .
HO-68 22 Jan 19:49:56 19:55:14 22° 269° (W) 20:00:34 435.675
ISS 22 Jan 19:55:11 19:58:00 27° 139° (SE) 20:00:51 437.550
BEESAT 2 22 Jan 20:02:12 20:04:49 17° 249° (WSW) 20:07:24 435.950
PCSat 22 Jan 20:13:44 20:16:45 15° 256° (WSW) 20:19:46 145.827
FO-29 22 Jan 20:24:14 20:29:25 68° 102° (ESE) 20:34:40 435.910
STRAND 1 22 Jan 20:28:12 20:33:09 49° 290° (WNW) 20:38:05 437.568
UWE-3 22 Jan 20:31:32 20:33:07 12° 273° (W) 20:34:43 435.000/436.395/437.385
ZACube-1 22 Jan 20:49:33 20:51:54 14° 272° (W) 20:54:16 437.345
AO-73 22 Jan 20:54:59 20:57:19 14° 272° (W) 20:59:41 145.935
AO-85 22 Jan 21:02:16 21:06:50 37° 243° (WSW) 21:11:38 145.980
DELFI C3 22 Jan 21:04:30 21:08:23 69° 259° (W) 21:12:17 145.870
NO-84 22 Jan 21:07:49 21:09:30 14° 14° (NNE) 21:11:09 435.350 FM
nSIGHT-1 22 Jan 21:09:19 21:12:25 51° 336° (NNW) 21:15:31 .
Max Valier Satellite 22 Jan 21:17:12 21:20:56 73° 259° (W) 21:24:41 145.860
TIGRISAT 22 Jan 21:17:52 21:21:52 27° 94° (E) 21:25:50 435.000
EO-88 22 Jan 21:30:53 21:34:31 76° 257° (WSW) 21:38:12 145.990 - 145.960
ISS 22 Jan 21:31:10 21:34:21 49° 336° (NNW) 21:37:33 437.550
UNISAT 6 22 Jan 21:33:26 21:37:55 41° 98° (E) 21:42:20 437.425
YUBILEINY 22 Jan 22:07:36 22:15:30 39° 85° (E) 22:23:22 435.215
FO-29 22 Jan 22:10:46 22:14:01 17° 301° (WNW) 22:17:16 435.910
ESTCUBE 1 22 Jan 22:20:54 22:25:12 45° 71° (ENE) 22:29:31 437.505/2401.250
PRISM 22 Jan 22:41:05 22:44:59 42° 99° (E) 22:48:52 437.425
LO-87 22 Jan 22:43:09 22:46:44 81° 258° (WSW) 22:50:20 145.935 - 145.965
NO-84 22 Jan 22:44:20 22:47:08 56° 34° (NE) 22:49:59 435.350 FM
nSIGHT-1 22 Jan 22:46:25 22:49:03 24° 356° (N) 22:51:42 .
TIGRISAT 22 Jan 22:54:17 22:58:35 36° 291° (WNW) 23:02:50 435.000
POLYITAN 1 22 Jan 23:06:54 23:08:57 13° 89° (E) 23:10:59 437.675
ISS 22 Jan 23:08:34 23:11:20 24° 356° (N) 23:14:06 437.550
UNISAT 6 22 Jan 23:10:36 23:14:22 24° 295° (WNW) 23:18:07 437.425
NANOSAT C BR1 22 Jan 23:19:52 23:22:31 16° 91° (E) 23:25:09 145.865
SPROUT 22 Jan 23:26:40 23:30:47 52° 72° (ENE) 23:34:58 437.525
QB50P2 22 Jan 23:35:27 23:39:13 29° 96° (E) 23:42:58 145.880/145.840
AIST 2D 22 Jan 23:43:00 23:46:27 65° 285° (WNW) 23:49:52 435.315
VELOX 1 22 Jan 23:46:56 23:51:09 49° 71° (ENE) 23:55:24 145.980
DX 1 22 Jan 23:58:07 00:00:29 15° 61° (ENE) 00:02:52 434.975-435.025
ESTCUBE 1 22 Jan 23:58:55 00:02:12 20° 268° (W) 00:05:31 437.505/2401.250
DUCHIFAT 1 23 Jan 00:01:14 00:05:13 37° 98° (E) 00:09:09 145.980
O/OREOS (USA 219) 23 Jan 00:03:21 00:07:45 56° 110° (ESE) 00:12:10 437.305
YUBILEINY 23 Jan 00:03:31 00:12:02 51° 286° (WNW) 00:20:35 435.215
EO-79 23 Jan 00:05:13 00:09:27 54° 100° (E) 00:13:38 145.935-145.965
PRISM 23 Jan 00:17:08 00:19:56 18° 296° (WNW) 00:22:45 437.425
NO-84 23 Jan 00:22:28 00:23:58 13° 230° (SW) 00:25:29 435.350 FM
nSIGHT-1 23 Jan 00:22:55 00:25:50 32° 16° (NNE) 00:28:44 .
Oscar 19 23 Jan 00:32:13 00:34:49 14° 88° (E) 00:37:24 437.125/150
Gurwin Techsat 1B 23 Jan 00:36:55 00:38:43 12° 87° (E) 00:40:30 435.225
POLYITAN 1 23 Jan 00:40:52 00:45:08 62° 287° (WNW) 00:49:21 437.675
ISS 23 Jan 00:45:23 00:48:25 34° 17° (NNE) 00:51:28 437.550
AO-91 23 Jan 00:52:21 00:56:08 25° 95° (E) 01:00:12 145.960
BUGSAT 1 23 Jan 00:53:39 00:57:30 32° 97° (E) 01:01:19 437.445
NANOSAT C BR1 23 Jan 00:54:21 00:58:30 50° 288° (WNW) 01:02:36 145.865
50 SAT 23 Jan 00:56:51 00:59:46 40° 72° (ENE) 01:02:41 437.505
SPROUT 23 Jan 01:04:27 01:06:59 15° 269° (W) 01:09:32 437.525
QB50P2 23 Jan 01:11:16 01:14:55 28° 293° (WNW) 01:18:33 145.880/145.840
UKube-1 23 Jan 01:15:06 01:19:15 51° 71° (ENE) 01:23:26 .
VELOX 1 23 Jan 01:24:58 01:27:52 17° 268° (W) 01:30:47 145.980
DX 1 23 Jan 01:31:52 01:36:10 64° 258° (WSW) 01:40:28 434.975-435.025
DUCHIFAT 1 23 Jan 01:37:20 01:40:39 22° 295° (WNW) 01:43:56 145.980
EO-79 23 Jan 01:42:06 01:44:46 16° 298° (WNW) 01:47:25 145.935-145.965
O/OREOS (USA 219) 23 Jan 01:44:19 01:47:31 19° 309° (NW) 01:50:43 437.305
ITUPSAT 1 23 Jan 01:52:35 01:56:25 25° 64° (ENE) 02:00:16 437.325
nSIGHT-1 23 Jan 01:59:00 02:02:08 58° 215° (SW) 02:05:16 .
MOZHAYETS 4 23 Jan 02:00:29 02:04:53 45° 71° (ENE) 02:09:20
YUBILEINY 23 Jan 02:09:04 02:11:26 11° 311° (NW) 02:13:48 435.215
Oscar 19 23 Jan 02:09:33 02:14:45 79° 286° (WNW) 02:19:53 437.125/150
CUBESAT XI-V 23 Jan 02:11:28 02:14:29 17° 62° (ENE) 02:17:30 437.345
Gurwin Techsat 1B 23 Jan 02:14:04 02:19:25 86° 101° (E) 02:24:44 435.225
AO-7 23 Jan 02:17:57 02:23:34 19° 89° (E) 02:29:07 .
ISS 23 Jan 02:21:49 02:25:01 53° 215° (SW) 02:28:13 437.550
AO-91 23 Jan 02:28:25 02:32:38 40° 289° (WNW) 02:37:13 145.960
BUGSAT 1 23 Jan 02:29:12 02:32:42 25° 294° (WNW) 02:36:11 437.445
BEESAT 23 Jan 02:29:38 02:34:15 54° 71° (ENE) 02:38:56 436.000
UKube-1 23 Jan 02:52:56 02:55:34 16° 268° (W) 02:58:13 .
KKS-1 23 Jan 03:15:16 03:16:52 12° 58° (ENE) 03:18:28 437.445
ITAMSAT 1 23 Jan 03:21:17 03:25:42 27° 95° (E) 03:30:06 435.822/435.867
ITUPSAT 1 23 Jan 03:29:28 03:33:59 42° 261° (W) 03:38:34 437.325
MOZHAYETS 4 23 Jan 03:38:48 03:42:15 21° 268° (W) 03:45:43
CUBESAT XI-V 23 Jan 03:46:45 03:51:22 61° 259° (W) 03:56:02 437.345
Oscar 19 23 Jan 03:51:09 03:53:12 12° 305° (NW) 03:55:15 437.125/150
Gurwin Techsat 1B 23 Jan 03:55:40 03:58:38 15° 303° (WNW) 04:01:36 435.225
DOVE 4 23 Jan 04:04:17 04:07:27 19° 93° (E) 04:10:43 437.250
AO-7 23 Jan 04:09:01 04:17:27 87° 109° (ESE) 04:25:48 .
BEESAT 23 Jan 04:09:04 04:12:20 18° 268° (W) 04:15:39 436.000
FALCONSAT 3 23 Jan 04:15:23 04:17:49 17° 172° (S) 04:20:15 435.103
SO-50 23 Jan 04:33:11 04:37:13 34° 116° (ESE) 04:41:19 436.795
KKS-1 23 Jan 04:48:19 04:52:44 85° 253° (WSW) 04:57:12 437.445
STARS 23 Jan 04:57:17 05:01:28 47° 71° (ENE) 05:05:41 437.465
ITAMSAT 1 23 Jan 05:00:24 05:05:17 41° 292° (WNW) 05:10:09 435.822/435.867
CUTE-I 23 Jan 05:13:26 05:15:56 13° 88° (E) 05:18:25 437.470
XW-2D 23 Jan 05:19:47 05:21:59 15° 91° (E) 05:24:11 145.860 - 145.880
HO-68 23 Jan 05:28:38 05:30:51 11° 84° (E) 05:33:04 435.675
XW-2B 23 Jan 05:36:52 05:39:51 22° 94° (E) 05:42:49 145.730 - 145.750
DOVE 4 23 Jan 05:41:08 05:45:19 45° 288° (WNW) 05:49:42 437.250
RS-15 23 Jan 05:41:52 05:47:52 15° 94° (E) 05:53:49 29.354- 29.394
M-CUBED/EXP-1 PRIME 23 Jan 05:47:15 05:50:32 58° 292° (WNW) 05:53:44 437.505
FALCONSAT 3 23 Jan 05:53:42 05:56:12 17° 187° (S) 05:58:41 435.103
CUTE 1.7 + AOD 2 23 Jan 06:02:21 06:04:33 14° 90° (E) 06:06:45 437.475
AO-7 23 Jan 06:02:48 06:09:16 26° 310° (NW) 06:15:43 .
XW-2C 23 Jan 06:06:52 06:10:33 51° 100° (E) 06:14:12 145.795 - 145.815
STRAND 1 23 Jan 06:07:11 06:11:53 39° 68° (ENE) 06:16:37 437.568
LilacSat-2 23 Jan 06:07:55 06:11:40 58° 101° (E) 06:15:22 437.200
SO-50 23 Jan 06:13:35 06:17:39 33° 316° (NW) 06:21:49 436.795
KAITUO 1B 23 Jan 06:34:21 06:38:04 79° 102° (ESE) 06:41:44 145.475/437.950
STARS 23 Jan 06:35:08 06:38:03 18° 268° (W) 06:41:00 437.465
FO-29 23 Jan 06:37:55 06:43:56 39° 68° (ENE) 06:49:21 435.910
CUBEBUG 2 23 Jan 06:39:39 06:43:37 26° 93° (E) 06:47:33 437.445
NUDT-PHONESAT 23 Jan 06:40:33 06:44:15 88° 94° (E) 06:47:54 437.300
UWE-3 23 Jan 06:40:34 06:43:13 15° 89° (E) 06:45:51 435.000/436.395/437.385
XW-2F 23 Jan 06:40:40 06:44:23 65° 285° (WNW) 06:48:04 145.980 - 146.000
CUTE-I 23 Jan 06:51:18 06:56:39 85° 285° (WNW) 07:01:59 437.470
XW-2D 23 Jan 06:52:48 06:56:21 41° 288° (WNW) 06:59:53 145.860 - 145.880
AAUSAT CUBESAT 2 23 Jan 06:54:07 06:55:58 13° 89° (E) 06:57:48 437.432
ZACube-1 23 Jan 06:59:17 07:00:51 12° 87° (E) 07:02:24 437.345
AO-73 23 Jan 07:04:30 07:05:58 11° 87° (E) 07:07:25 145.935
XW-2B 23 Jan 07:10:47 07:14:00 27° 291° (WNW) 07:17:12 145.730 - 145.750
HO-68 23 Jan 07:12:44 07:19:54 67° 103° (ESE) 07:27:01 435.675
SEEDS 23 Jan 07:18:48 07:22:55 55° 100° (E) 07:26:59 437.485
Oscar 11 23 Jan 07:34:01 07:36:19 14° 90° (E) 07:38:35 .
CUTE 1.7 + AOD 2 23 Jan 07:36:36 07:40:44 56° 287° (WNW) 07:44:50 437.475
XW-2C 23 Jan 07:42:27 07:44:17 13° 297° (WNW) 07:46:07 145.795 - 145.815
LilacSat-2 23 Jan 07:43:54 07:45:27 12° 298° (WNW) 07:46:59 437.200
RS-15 23 Jan 07:45:44 07:57:48 64° 116° (ESE) 08:09:41 29.354- 29.394
STRAND 1 23 Jan 07:46:50 07:51:10 28° 265° (W) 07:55:32 437.568
XW-2A 23 Jan 07:53:48 07:57:03 44° 99° (E) 08:00:14 145.665 - 145.685
YUBILEINY 23 Jan 08:15:12 08:21:32 21° 59° (ENE) 08:27:47 435.215
UWE-3 23 Jan 08:15:27 08:20:06 64° 286° (WNW) 08:24:39 435.000/436.395/437.385
CUBEBUG 2 23 Jan 08:15:54 08:20:18 38° 291° (WNW) 08:24:40 437.445
TIGRISAT 23 Jan 08:18:14 08:22:03 28° 66° (ENE) 08:25:58 435.000
FO-29 23 Jan 08:22:54 08:29:01 37° 263° (W) 08:34:32 435.910
AAUSAT CUBESAT 2 23 Jan 08:27:44 08:31:47 59° 286° (WNW) 08:35:48 437.432
O/OREOS (USA 219) 23 Jan 08:32:49 08:36:05 19° 52° (NE) 08:39:19 437.305
ZACube-1 23 Jan 08:33:07 08:37:41 77° 285° (WNW) 08:42:09 437.345
CUTE-I 23 Jan 08:33:17 08:35:53 14° 304° (NW) 08:38:29 437.470
UNISAT 6 23 Jan 08:33:46 08:38:00 43° 70° (ENE) 08:42:21 437.425
AO-73 23 Jan 08:38:12 08:42:45 78° 286° (WNW) 08:47:12 145.935
DELFI C3 23 Jan 08:40:42 08:42:28 13° 90° (E) 08:44:12 145.870
SEEDS 23 Jan 08:55:46 08:58:09 15° 297° (WNW) 09:00:31 437.485
BEESAT 3 23 Jan 08:58:30 09:02:20 47° 120° (ESE) 09:06:11 437.485
HO-68 23 Jan 09:01:16 09:07:04 28° 303° (WNW) 09:12:54 435.675
Oscar 11 23 Jan 09:08:34 09:12:50 58° 286° (WNW) 09:17:03 .
PCSat 23 Jan 09:11:58 09:17:11 51° 115° (ESE) 09:22:26 145.827
XW-2A 23 Jan 09:28:02 09:29:19 12° 296° (WNW) 09:30:36 145.665 - 145.685
PRISM 23 Jan 09:31:49 09:35:34 39° 70° (ENE) 09:39:22 437.425
BEESAT 2 23 Jan 09:53:07 09:56:59 47° 119° (ESE) 10:00:53 435.950
TIGRISAT 23 Jan 09:54:40 09:58:39 31° 265° (W) 10:02:44 435.000
RS-15 23 Jan 09:58:59 10:10:52 51° 321° (NW) 10:22:30 29.354- 29.394
POLYITAN 1 23 Jan 10:01:28 10:03:37 14° 61° (ENE) 10:05:47 437.675
YUBILEINY 23 Jan 10:10:53 10:19:41 89° 88° (E) 10:28:22 435.215
O/OREOS (USA 219) 23 Jan 10:11:27 10:15:49 53° 251° (WSW) 10:20:10 437.305
UNISAT 6 23 Jan 10:11:35 10:14:55 20° 268° (W) 10:18:19 437.425
DELFI C3 23 Jan 10:13:40 10:17:31 54° 287° (WNW) 10:21:21 145.870
NANOSAT C BR1 23 Jan 10:13:54 10:16:30 16° 62° (ENE) 10:19:07 145.865
AIST 2D 23 Jan 10:18:16 10:21:42 54° 74° (ENE) 10:25:10 435.315
Max Valier Satellite 23 Jan 10:18:37 10:22:19 69° 284° (WNW) 10:25:57 145.860
QB50P2 23 Jan 10:29:40 10:33:18 28° 67° (ENE) 10:36:58 145.880/145.840
EO-88 23 Jan 10:30:45 10:34:23 76° 284° (WNW) 10:37:59 145.990 - 145.960
BEESAT 3 23 Jan 10:36:55 10:40:04 22° 318° (NW) 10:43:15 437.485
DUCHIFAT 1 23 Jan 10:54:29 10:58:18 34° 69° (ENE) 11:02:09 145.980
PCSat 23 Jan 10:56:06 11:00:50 30° 315° (NW) 11:05:35 145.827
EO-79 23 Jan 10:58:59 11:03:04 51° 72° (ENE) 11:07:13 145.935-145.965
PRISM 23 Jan 11:08:06 11:10:59 19° 267° (W) 11:13:52 437.425
AO-85 23 Jan 11:18:22 11:22:11 47° 119° (ESE) 11:26:17 145.980
SO-50 23 Jan 11:22:45 11:25:06 14° 29° (NNE) 11:27:27 436.795
BEESAT 2 23 Jan 11:31:42 11:34:55 22° 319° (NW) 11:38:09 435.950
POLYITAN 1 23 Jan 11:34:38 11:38:51 67° 259° (WSW) 11:43:07 437.675
LO-87 23 Jan 11:40:59 11:44:38 86° 283° (WNW) 11:48:15 145.935 - 145.965
BUGSAT 1 23 Jan 11:45:02 11:48:34 28° 67° (ENE) 11:52:08 437.445
NANOSAT C BR1 23 Jan 11:47:38 11:51:46 54° 260° (W) 11:55:57 145.865
ESTCUBE 1 23 Jan 11:47:39 11:52:10 76° 103° (ESE) 11:56:38 437.505/2401.250
Oscar 19 23 Jan 11:50:09 11:54:24 26° 63° (ENE) 11:58:41 437.125/150
AO-91 23 Jan 11:52:55 11:55:17 18° 65° (ENE) 11:57:45 145.960
AIST 2D 23 Jan 11:55:04 11:55:11 10° 271° (W) 11:55:18 435.315
Gurwin Techsat 1B 23 Jan 11:58:39 12:02:53 25° 62° (ENE) 12:07:07 435.225
QB50P2 23 Jan 12:05:21 12:09:01 28° 265° (W) 12:12:44 145.880/145.840
YUBILEINY 23 Jan 12:09:27 12:15:13 20° 283° (WNW) 12:20:59 435.215
RS-15 23 Jan 12:16:54 12:27:05 29° 353° (N) 12:36:57 29.354- 29.394
DUCHIFAT 1 23 Jan 12:30:42 12:34:02 22° 266° (W) 12:37:24 145.980
EO-79 23 Jan 12:36:34 12:39:07 16° 269° (W) 12:41:43 145.935-145.965
SPROUT 23 Jan 12:45:39 12:49:59 78° 101° (ESE) 12:54:17 437.525
AO-85 23 Jan 12:59:29 13:02:50 23° 320° (NW) 13:06:24 145.980
SO-50 23 Jan 13:01:56 13:06:33 56° 50° (NE) 13:11:15 436.795
VELOX 1 23 Jan 13:10:49 13:15:14 76° 103° (ESE) 13:19:38 145.980
AO-7 23 Jan 13:18:36 13:25:56 36° 56° (NE) 13:33:16 .
DX 1 23 Jan 13:18:45 13:21:48 18° 93° (E) 13:24:50 434.975-435.025
BUGSAT 1 23 Jan 13:20:24 13:23:52 26° 265° (W) 13:27:25 437.445
ESTCUBE 1 23 Jan 13:26:15 13:28:21 13° 300° (WNW) 13:30:27 437.505/2401.250
Oscar 19 23 Jan 13:28:30 13:33:29 45° 261° (W) 13:38:29 437.125/150
AO-91 23 Jan 13:28:37 13:31:35 28° 264° (W) 13:34:43 145.960
Gurwin Techsat 1B 23 Jan 13:37:22 13:42:30 50° 260° (W) 13:47:41 435.225
50 SAT 23 Jan 13:40:52 13:43:25 23° 96° (E) 13:45:57 437.505
SPROUT 23 Jan 14:23:32 14:25:15 12° 300° (WNW) 14:26:57 437.525
BEESAT 23 Jan 14:29:59 14:31:31 11° 88° (E) 14:33:04 436.000
RS-15 23 Jan 14:33:03 14:44:00 38° 28° (NNE) 14:54:24 29.354- 29.394
UKube-1 23 Jan 14:35:38 14:39:58 72° 104° (ESE) 14:44:15 .
ITAMSAT 1 23 Jan 14:40:54 14:45:53 51° 70° (ENE) 14:50:54 435.822/435.867
SO-50 23 Jan 14:43:09 14:46:39 21° 248° (WSW) 14:50:12 436.795
VELOX 1 23 Jan 14:49:05 14:51:05 13° 300° (WNW) 14:53:05 145.980
DX 1 23 Jan 14:54:03 14:58:12 45° 290° (WNW) 15:02:20 434.975-435.025
M-CUBED/EXP-1 PRIME 23 Jan 15:00:23 15:03:38 22° 62° (ENE) 15:06:44 437.505
DOVE 4 23 Jan 15:11:59 15:15:14 22° 66° (ENE) 15:18:27 437.250
50 SAT 23 Jan 15:12:46 15:14:58 18° 293° (WNW) 15:17:09 437.505
